Regional Weather Roundup
Issued by NWS Goodland, KS

Home | Current Version | Previous Version | Text Only | Print | Product List | Glossary Off
Versions: 1 2 3 4 5 6 7 8 9 10 11 12 13 14 15 16 17 18 19 20 21 22 23 24 25 26 27 28 29 30 31 32 33 34 35 36 37 38 39 40 41 42 43 44 45 46 47 48 49 50

000
ASUS43 KGLD 211159
RWRGLD

GOODLAND FORECAST AREA HOURLY WEATHER ROUNDUP
NATIONAL WEATHER SERVICE GOODLAND KS
600 AM MDT FRI JUL 21 2017

...OFFICIAL OBSERVATIONS...

CITY           SKY/WX    TMP DP  RH WIND       PRES   REMARKS
GOODLAND KS    CLEAR     68  58  70 W8        29.96R
HILL CITY KS   CLEAR     78  60  53 S12       29.88S
IMPERIAL NEB   CLEAR     70  66  87 W6        29.91S
MCCOOK NEB     CLEAR     71  60  68 W13       29.87R
AKRON CO       CLEAR     66  55  67 NW13      30.05R
BURLINGTON CO  CLEAR     63  59  87 W7        30.01R
LIMON CO       CLEAR     63  55  75 NW8       30.12R
$$

...UNOFFICIAL OBSERVATIONS...

CITY           SKY/WX    TMP DP  RH WIND       PRES   REMARKS
LENORA KS        N/A     72  32  23 MISG        N/A
NORTON KS      CLEAR     70  54  56 S6        29.88S
SHARON SPRINGS   N/A     65  57  76 SW7         N/A
TRENTON NEB      N/A     69  32  25 CALM        N/A
KIT CARSON CO    N/A     63  57  80 MISG        N/A
YUMA CO        FAIR      64  50  59 W8        30.00S
$$



USA.gov is the U.S. government's official web portal to all federal, state and local government web resources and services.